Regional Weather Roundup
Issued by NWS

Home | Current Version | Previous Version | Text Only | Print | Product List | Glossary On
Versions: 1 2 3 4 5 6 7 8 9 10 11 12 13 14 15 16 17 18 19 20 21 22 23 24 25 26 27 28 29 30 31 32 33 34 35 36 37 38 39 40 41 42 43 44 45 46 47 48 49 50
000
ASUS43 KMPX 050110
RWRMN
WEATHER ROUNDUP FOR MINNESOTA
NATIONAL WEATHER SERVICE TWIN CITIES/CHANHASSEN MN
800 PM CDT MON MAY 04 2015


NOTE: "FAIR" INDICATES FEW OR NO CLOUDS BELOW 12,000 FEET WITH NO
SIGNIFICANT WEATHER AND/OR OBSTRUCTIONS TO VISIBILITY. N/A MEANS
CURRENT SKY AND/OR WEATHER CONDITIONS ARE NOT AVAILABLE.

MNZ060>063-068>070-050200-
   Twin Cities Metro

CITY           SKY/WX    TMP DP  RH WIND       PRES   REMARKS
TWIN CITIES    MOCLDY    69  26  20 NE7       30.16S
ST PAUL        MOCLDY    67  29  24 E3        30.17S
CRYSTAL        MOCLDY    67  26  21 NE5       30.16S
LAKEVILLE      CLOUDY    61  37  41 SE3       30.16S
EDEN PRAIRIE   MOCLDY    65  29  25 E6        30.15S
SOUTH ST PAUL  MOCLDY    67  28  23 CALM      30.16S
LAKE ELMO      FAIR      64  36  34 NE5       30.17F
$$
MNZ001>005-007-008-013>017-022>024-027-028-050200-
   Northwest Minnesota

CITY           SKY/WX    TMP DP  RH WIND       PRES   REMARKS
BEMIDJI        CLEAR     60  26  26 CALM      30.18S
HALLOCK        CLEAR     66  14  13 NW5       30.14R
ROSEAU         PTCLDY    64  25  22 CALM      30.16S
WARROAD        CLEAR     63  32  31 W5        30.17S
THIEF RVR FALL CLEAR     64  23  20 CALM      30.18R
CROOKSTON      CLEAR     64  25  22 CALM      30.17S
FOSSTON        CLEAR     64  21  19 CALM      30.18S
DETROIT LAKES  CLEAR     61  28  29 SW3       30.20S
MOORHEAD       CLEAR     66  23  19 S5        30.17S
PARK RAPIDS    CLEAR     61  30  31 SW6       30.18S
MAHNOMEN       FAIR      65  21  18 CALM      30.17S
$$
MNZ006-009>011-018-025>026-050200-
   North Central Minnesota

CITY           SKY/WX    TMP DP  RH WIND       PRES   REMARKS
BAUDETTE       PTCLDY    61  25  25 W6        30.17S
FLAG ISLAND    CLEAR     55  36  47 E6        30.15S
INTL FALLS     PTCLDY    59  27  29 SW5       30.18S
WASKISH        CLEAR     61  28  29 CALM      30.18F
BIG FORK       CLEAR     61  21  21 CALM      30.20S
LONGVILLE      CLEAR     59  27  29 CALM      30.20S
GRAND RAPIDS   CLEAR     61  21  21 NW6       30.20S
CRANE LAKE     CLEAR     57  28  33 CALM      30.22R
ORR            CLEAR     57  25  28 CALM      30.17S
COOK           CLEAR     61  27  27 CALM      30.20R
WALKER         FAIR      59  27  28 CALM      30.19S
$$
MNZ012-019>021-037-050200-
   Northeast Minnesota

CITY           SKY/WX    TMP DP  RH WIND       PRES   REMARKS
DULUTH         PTCLDY    62  17  17 W6        30.19R
ELY            CLEAR     57  25  28 CALM      30.21R
HIBBING        CLEAR     59  23  25 CALM      30.19R
EVELETH        CLEAR     59  21  23 NW3       30.20S
DULUTH HARBOR  PTCLDY    64  18  16 CALM      30.19R
TWO HARBORS    PTCLDY    63  30  29 CALM      30.17R
SILVER BAY     PTCLDY    55  25  30 CALM      30.19R
GRAND MARAIS     N/A     43  34  70 SW6       30.20R
G MARAIS ARPRT CLEAR     52  25  35 CALM      30.22R
$$
MNZ029>031-032-039>041-046>048-054>057-064-050200-
   West Central Minnesota

CITY           SKY/WX    TMP DP  RH WIND       PRES   REMARKS
FERGUS FALLS   PTCLDY    64  30  27 E3        30.18S
WHEATON        PTCLDY    64  28  25 NE6       30.18S
MORRIS         PTCLDY    64  30  27 E6        30.17S
ALEXANDRIA     PTCLDY    61  30  31 E7        30.19S
ELBOW LAKE     FAIR      63  29  27 NE6       30.18S
WADENA         PTCLDY    63  30  29 CALM      30.19S
GLENWOOD       PTCLDY    63  30  29 NE6       30.19S
APPLETON       MOCLDY    66  27  22 NE6       30.16S
BENSON         PTCLDY    63  25  23 E5        30.17S
ORTONVILLE     MOCLDY    66  28  24 E8        30.15F
MADISON        MOCLDY    66  25  20 NE10      30.15F
WILLMAR        FAIR      66  30  26 NE7       30.18F
$$
MNZ033>034-036-042>043-049>051-058-059-050200-
   Central Minnesota

CITY           SKY/WX    TMP DP  RH WIND       PRES   REMARKS
ST CLOUD       PTCLDY    63  26  24 NE5       30.19R
SAUK CENTRE    FAIR      62  35  36 E6        30.18F
PAYNESVILLE    PTCLDY    63  29  28 NE6       30.18F
AITKIN         PTCLDY    61   7  11 CALM      30.19R
PINE RIVER     PTCLDY    59  34  38 SE3       30.22S
BRAINERD       PTCLDY    60  21  22 NE5       30.20F
STAPLES        PTCLDY    63  27  25 CALM      30.19S
LONG PRAIRIE   FAIR      61  32  33 N5        30.20R
LITTLE FALLS   PTCLDY    63  23  22 CALM      30.20S
LITCHFIELD     PTCLDY    66  32  28 NE7       30.18S
BUFFALO        PTCLDY    64  28  26 N5        30.19R
MAPLE LAKE     PTCLDY    65  31  27 NE5       30.19S
$$
MNZ037-044-045-052-053-050200-
   East Central Minnesota

CITY           SKY/WX    TMP DP  RH WIND       PRES   REMARKS
PRINCETON      PTCLDY    63  30  29 N3        30.19S
MORA           MOCLDY    59  28  31 N3        30.20S
CAMBRIDGE      PTCLDY    66  41  39 CALM      30.17R
RUSH CITY      PTCLDY    62  24  23 CALM      30.19R
MOOSE LAKE     PTCLDY    61  27  27 CALM      30.18S
HINCKLEY       FAIR      63  25  23 N3        30.19R
CLOQUET        PTCLDY    61  18  18 CALM      30.20R
MCGREGOR       MOCLDY    63  23  22 CALM      30.20S
$$
MNZ071>073-080-081-089-090-097-098-050200-
   Southwest Minnesota

CITY           SKY/WX    TMP DP  RH WIND       PRES   REMARKS
MONTEVIDEO     MOCLDY    66  28  24 E7        30.16F
GRANITE FALLS  MOCLDY    65  29  26 NE6       30.16F
CANBY          MOCLDY    66  25  20 E9        30.15F
MARSHALL       MOCLDY    66  25  20 NE13      30.14S
REDWOOD FALLS  MOCLDY    68  26  20 E9        30.15S
OLIVIA         MOCLDY    64  28  25 E5        30.15F
PIPESTONE      MOCLDY    68  23  18 SE13      30.13F
WINDOM         CLOUDY    63  28  27 E6        30.16S
WORTHINGTON    CLOUDY    64  28  25 E9        30.15S
JACKSON        CLOUDY    64  27  24 E10       30.15S
TRACY          MOCLDY    68  30  24 SE9       30.14F
SLAYTON        MOCLDY    66  27  23 CALM      30.15S
$$
MNZ065>067-074>077-082>085-091>093-050200-
   South Central Minnesota

CITY           SKY/WX    TMP DP  RH WIND       PRES   REMARKS
MANKATO        MOCLDY    64  34  32 E6        30.16S
NEW ULM        MOCLDY    64  28  25 E6        30.16R
ST JAMES       MOCLDY    64  27  24 NE7       30.16S
FAIRMONT       MOCLDY    66  28  24 NE12      30.14S
GLENCOE        MOCLDY    66  32  28 CALM      30.16S
FARIBAULT      MOCLDY    64  32  29 E3        30.16F
OWATONNA       CLOUDY    63  32  31 E5        30.16S
WASECA         MOCLDY    61  36  39 NE5       30.17S
ALBERT LEA     MOCLDY    63  43  48 E6        30.15S
$$
MNZ078>079-086>088-094>096-050200-
   Southeast Minnesota

CITY           SKY/WX    TMP DP  RH WIND       PRES   REMARKS
ROCHESTER      CLOUDY    61  40  45 N8        30.16F
RED WING       CLOUDY    63  37  39 CALM      30.15S
STANTON        CLOUDY    65  31  28 E3        30.15S
DODGE CENTER   CLOUDY    64  34  32 NE7       30.16F
WINONA         CLOUDY    63  39  42 CALM      30.15F
AUSTIN         CLOUDY    61  41  48 NE5       30.15S
PRESTON        CLOUDY    60  41  49 NE5       30.16S
$$
ABBREVIATIONS USED IN REMARKS
   TC - TEMPERATURES IN CELSIUS
  WCI - WIND CHILL INDEX
   HX - HEAT INDEX
  VSB - VISIBILITY
$$



USA.gov is the U.S. government's official web portal to all federal, state and local government web resources and services.